Location: Unspecified
(51.0950°N, 12.9690°E)
Time: 13:55:43
(UTC+00:00)

ACS3 Solar Sail - Visible Passes

Search period start: 19 September 2024 00:00
Search period end: 29 September 2024 00:00
Orbit: 970 x 1035 km, 97.4° (Epoch: 18 September)

Date Brightness Start Highest point End Pass type
(mag) Time Alt. Az. Time Alt. Az. Time Alt. Az.
19 Sep 2.3 18:15:41 10° SE 18:21:41 43° ENE 18:27:40 10° N visible
19 Sep 2.9 20:00:27 14° SSW 20:05:42 43° W 20:11:48 10° NNW visible
20 Sep 1.9 18:48:37 13° SSE 18:54:25 70° ENE 19:00:48 10° N visible
20 Sep 3.7 20:33:51 10° SW 20:38:59 26° W 20:44:14 10° NNW visible
21 Sep 2.9 17:38:38 10° ESE 17:43:50 27° ENE 17:49:00 10° N visible
21 Sep 2.0 19:21:58 16° S 19:27:18 74° WSW 19:33:43 10° NNW visible
21 Sep 4.3 21:08:50 10° WSW 21:12:25 15° W 21:15:59 10° NW visible
22 Sep 2.4 18:10:22 10° SE 18:16:19 42° ENE 18:22:14 10° N visible
22 Sep 2.8 19:55:17 15° SSW 20:00:17 45° W 20:06:24 10° NNW visible
23 Sep 1.9 18:43:20 14° SSE 18:48:55 67° ENE 18:55:15 10° N visible
23 Sep 3.6 20:28:33 12° SW 20:33:25 27° W 20:38:46 10° NNW visible
24 Sep 3.0 17:33:08 10° ESE 17:38:14 26° ENE 17:43:17 10° N visible
24 Sep 2.0 19:16:33 17° S 19:21:39 77° WSW 19:28:03 10° NNW visible
24 Sep 4.2 21:02:55 10° WSW 21:06:41 16° W 21:10:28 10° NW visible
25 Sep 2.4 18:04:41 10° SE 18:10:34 40° ENE 18:16:25 10° N visible
25 Sep 2.7 19:49:45 17° SSW 19:54:29 47° W 20:00:38 10° NNW visible
26 Sep 1.9 18:37:40 15° SSE 18:43:01 64° ENE 18:49:19 10° N visible
26 Sep 3.5 20:22:53 13° SW 20:27:28 28° W 20:32:53 10° NNW visible
27 Sep 3.0 17:27:17 10° ESE 17:32:15 25° ENE 17:37:10 10° N visible
27 Sep 1.9 19:10:46 19° S 19:15:36 81° WSW 19:22:00 10° NNW visible
27 Sep 4.2 20:56:36 10° WSW 21:00:34 17° W 21:04:32 10° NW visible
28 Sep 2.4 17:58:39 10° SE 18:04:26 38° ENE 18:10:12 10° N visible
28 Sep 2.6 19:43:49 19° SSW 19:48:17 50° W 19:54:28 10° NNW visible
